weather.gov     
National Weather Service

Terminal Aerodrome Forecast
NWS Homepage
This page is being discontinued on March 12, 2014.
The same data is available at this site. Please update your bookmarks.
Thank you, and we apologize for the inconvenience.
Please send an email to SR-SRH.Webmaster@noaa.gov with any concerns.


Current Version
Previous Version:    01  02  03  04  05  06  07  08  09  10  11  12  13  14  15  16  17  18  19  20  21  22  23  24  25  26  27  
[Printable]
068
FTUS43 KILX 312300
TAFDEC
TAF
KDEC 312336Z 0100/0124 15008KT 5SM -RA BR OVC035
     FM010100 15008KT 6SM BR VCSH OVC035
     FM010900 12010KT 2SM -RASN BR OVC008
     FM011500 12012KT 1SM -SN OVC004
     FM012100 03012KT 2SM -SN OVC008=


U.S. Dept. of Commerce
NOAA National Weather Service
1325 East West Highway
Silver Spring, MD 20910
E-mail: w-nws.webmaster@noaa.gov
Page last modified: May 16, 2007
NATIONAL WEATHER SERVICE: for Safety, for Work, for Fun - FOR LIFE